TimeCDT,TemperatureF,Dew PointF,Humidity,Sea Level PressureIn,VisibilityMPH,Wind Direction,Wind SpeedMPH,Gust SpeedMPH,PrecipitationIn,Events,Conditions,WindDirDegrees,DateUTC
12:13 AM,78.8,69.8,74,30.21,10.0,South,9.2,-,N/A,,Scattered Clouds,170,2013-07-16 05:13:00
12:33 AM,78.8,69.8,74,30.21,10.0,South,8.1,-,N/A,,Overcast,170,2013-07-16 05:33:00
12:54 AM,78.8,69.8,74,30.21,10.0,South,8.1,-,N/A,,Mostly Cloudy,170,2013-07-16 05:54:00
1:13 AM,78.8,69.8,74,30.21,10.0,SSE,5.8,-,N/A,,Mostly Cloudy,160,2013-07-16 06:13:00
1:33 AM,78.8,69.8,74,30.21,10.0,SSE,4.6,-,N/A,,Scattered Clouds,160,2013-07-16 06:33:00
1:54 AM,77.0,69.8,78,30.21,10.0,SSE,3.5,-,N/A,,Clear,160,2013-07-16 06:54:00
2:13 AM,77.0,69.8,78,30.21,7.0,South,3.5,-,N/A,,Clear,170,2013-07-16 07:13:00
2:33 AM,75.2,69.8,83,30.21,7.0,SSE,3.5,-,N/A,,Clear,160,2013-07-16 07:33:00
2:54 AM,75.2,69.8,83,30.21,7.0,SSE,3.5,-,N/A,,Clear,160,2013-07-16 07:54:00
3:13 AM,75.2,69.8,83,30.21,7.0,South,5.8,-,N/A,,Clear,170,2013-07-16 08:13:00
3:33 AM,75.2,69.8,83,30.21,7.0,South,5.8,-,N/A,,Clear,170,2013-07-16 08:33:00
3:54 AM,75.2,69.8,83,30.21,7.0,South,4.6,-,N/A,,Clear,180,2013-07-16 08:54:00
4:13 AM,75.2,69.8,83,30.21,7.0,South,4.6,-,N/A,,Scattered Clouds,180,2013-07-16 09:13:00
4:33 AM,75.2,69.8,83,30.21,10.0,South,3.5,-,N/A,,Clear,180,2013-07-16 09:33:00
4:54 AM,75.2,69.8,83,30.22,10.0,South,4.6,-,N/A,,Clear,190,2013-07-16 09:54:00
5:13 AM,75.2,69.8,83,30.22,10.0,SSW,4.6,-,N/A,,Clear,200,2013-07-16 10:13:00
5:34 AM,75.2,69.8,83,30.22,10.0,South,5.8,-,N/A,,Clear,190,2013-07-16 10:34:00
5:53 AM,75.2,69.8,83,30.22,10.0,South,5.8,-,N/A,,Clear,190,2013-07-16 10:53:00
6:13 AM,75.2,69.8,83,30.22,10.0,South,6.9,-,N/A,,Clear,180,2013-07-16 11:13:00
6:34 AM,75.2,69.8,83,30.23,10.0,South,6.9,-,N/A,,Clear,190,2013-07-16 11:34:00
6:54 AM,75.2,69.8,83,30.23,7.0,SSW,4.6,-,N/A,,Clear,200,2013-07-16 11:54:00
7:13 AM,77.0,69.8,78,30.24,10.0,South,5.8,-,N/A,,Clear,190,2013-07-16 12:13:00
7:33 AM,77.0,69.8,78,30.24,10.0,SSW,5.8,-,N/A,,Clear,200,2013-07-16 12:33:00
7:54 AM,78.8,69.8,74,30.24,10.0,SSW,4.6,-,N/A,,Clear,200,2013-07-16 12:54:00
8:13 AM,78.8,69.8,74,30.25,10.0,SSW,6.9,-,N/A,,Clear,200,2013-07-16 13:13:00
8:33 AM,80.6,69.8,70,30.25,10.0,SSW,4.6,-,N/A,,Clear,200,2013-07-16 13:33:00
8:54 AM,80.6,69.8,70,30.25,10.0,SW,3.5,-,N/A,,Clear,230,2013-07-16 13:54:00
9:13 AM,82.4,69.8,66,30.26,10.0,SSW,4.6,-,N/A,,Clear,210,2013-07-16 14:13:00
9:33 AM,82.4,69.8,66,30.26,10.0,SW,5.8,-,N/A,,Clear,230,2013-07-16 14:33:00
9:53 AM,82.4,69.8,66,30.26,10.0,SSW,5.8,-,N/A,,Clear,210,2013-07-16 14:53:00
10:13 AM,84.2,69.8,62,30.25,10.0,SW,4.6,-,N/A,,Clear,220,2013-07-16 15:13:00
10:34 AM,84.2,69.8,62,30.25,10.0,SW,3.5,-,N/A,,Clear,230,2013-07-16 15:34:00
10:53 AM,86.0,69.8,58,30.25,10.0,South,5.8,-,N/A,,Clear,190,2013-07-16 15:53:00
11:13 AM,86.0,68.0,55,30.25,10.0,SW,5.8,-,N/A,,Clear,230,2013-07-16 16:13:00
11:33 AM,87.8,68.0,52,30.25,10.0,SSW,3.5,-,N/A,,Clear,210,2013-07-16 16:33:00
11:53 AM,87.8,68.0,52,30.25,10.0,SSW,6.9,-,N/A,,Clear,210,2013-07-16 16:53:00
12:14 PM,87.8,66.2,49,30.25,10.0,SSW,3.5,-,N/A,,Clear,210,2013-07-16 17:14:00
12:33 PM,87.8,66.2,49,30.26,10.0,South,8.1,-,N/A,,Scattered Clouds,190,2013-07-16 17:33:00
12:53 PM,89.6,66.2,46,30.25,10.0,South,8.1,-,N/A,,Scattered Clouds,180,2013-07-16 17:53:00
1:14 PM,89.6,62.6,40,30.25,10.0,SW,4.6,-,N/A,,Clear,230,2013-07-16 18:14:00
1:33 PM,89.6,64.4,43,30.25,10.0,South,4.6,-,N/A,,Clear,180,2013-07-16 18:33:00
1:53 PM,89.6,62.6,40,30.25,10.0,Calm,Calm,-,N/A,,Clear,0,2013-07-16 18:53:00
2:06 PM,89.6,62.6,40,30.25,10.0,SW,4.6,-,N/A,,Scattered Clouds,220,2013-07-16 19:06:00
2:21 PM,89.6,64.4,43,30.24,10.0,SSW,6.9,-,N/A,,Scattered Clouds,210,2013-07-16 19:21:00
2:38 PM,89.6,62.6,40,30.24,10.0,SSW,8.1,-,N/A,,Clear,210,2013-07-16 19:38:00
2:53 PM,91.4,64.4,41,30.24,10.0,SW,5.8,-,N/A,,Clear,220,2013-07-16 19:53:00
3:14 PM,91.4,62.6,38,30.24,10.0,South,6.9,-,N/A,,Scattered Clouds,190,2013-07-16 20:14:00
3:33 PM,89.6,62.6,40,30.23,10.0,SSW,5.8,-,N/A,,Clear,210,2013-07-16 20:33:00
3:53 PM,89.6,62.6,40,30.23,10.0,South,8.1,-,N/A,,Clear,180,2013-07-16 20:53:00
4:14 PM,91.4,62.6,38,30.23,10.0,SW,5.8,-,N/A,,Scattered Clouds,230,2013-07-16 21:14:00
4:33 PM,91.4,62.6,38,30.22,10.0,SW,3.5,-,N/A,,Scattered Clouds,230,2013-07-16 21:33:00
4:53 PM,89.6,64.4,43,30.22,10.0,SSW,3.5,-,N/A,,Clear,210,2013-07-16 21:53:00
5:14 PM,89.6,64.4,43,30.22,10.0,WSW,5.8,-,N/A,,Clear,240,2013-07-16 22:14:00
5:33 PM,89.6,64.4,43,30.22,10.0,SW,5.8,-,N/A,,Clear,230,2013-07-16 22:33:00
5:53 PM,89.6,62.6,40,30.22,10.0,SSW,5.8,-,N/A,,Clear,200,2013-07-16 22:53:00
6:14 PM,89.6,64.4,43,30.22,10.0,SW,3.5,-,N/A,,Clear,220,2013-07-16 23:14:00
6:33 PM,89.6,64.4,43,30.21,10.0,SSW,4.6,-,N/A,,Clear,210,2013-07-16 23:33:00
6:53 PM,89.6,64.4,43,30.21,10.0,South,5.8,-,N/A,,Clear,190,2013-07-16 23:53:00
7:14 PM,89.6,64.4,43,30.21,10.0,South,6.9,-,N/A,,Clear,190,2013-07-17 00:14:00
7:33 PM,87.8,64.4,46,30.22,10.0,South,4.6,-,N/A,,Clear,190,2013-07-17 00:33:00
7:53 PM,87.8,64.4,46,30.22,10.0,South,3.5,-,N/A,,Clear,190,2013-07-17 00:53:00
8:14 PM,87.8,64.4,46,30.22,10.0,South,4.6,-,N/A,,Clear,190,2013-07-17 01:14:00
8:33 PM,84.2,68.0,58,30.23,10.0,Calm,Calm,-,N/A,,Clear,0,2013-07-17 01:33:00
8:53 PM,82.4,69.8,66,30.22,10.0,Calm,Calm,-,N/A,,Clear,0,2013-07-17 01:53:00
9:14 PM,82.4,68.0,62,30.23,10.0,Calm,Calm,-,N/A,,Clear,0,2013-07-17 02:14:00
9:33 PM,82.4,69.8,66,30.24,10.0,South,4.6,-,N/A,,Clear,190,2013-07-17 02:33:00
9:53 PM,82.4,69.8,66,30.25,10.0,Calm,Calm,-,N/A,,Clear,0,2013-07-17 02:53:00
10:14 PM,82.4,68.0,62,30.25,10.0,Calm,Calm,-,N/A,,Clear,0,2013-07-17 03:14:00
10:33 PM,80.6,69.8,70,30.25,10.0,Calm,Calm,-,N/A,,Clear,0,2013-07-17 03:33:00
10:53 PM,80.6,68.0,65,30.25,5.0,Calm,Calm,-,N/A,,Haze,0,2013-07-17 03:53:00
11:13 PM,80.6,69.8,70,30.25,10.0,South,3.5,-,N/A,,Clear,190,2013-07-17 04:13:00
11:33 PM,80.6,69.8,70,30.26,10.0,South,3.5,-,N/A,,Clear,190,2013-07-17 04:33:00
11:54 PM,78.8,69.8,74,30.26,10.0,Calm,Calm,-,N/A,,Clear,0,2013-07-17 04:54:00